{"data":{"norad_id":65498,"epoch":"2026-09-20T21:25:40.328832Z","epoch_age_seconds":78035,"freshness":"FRESH","line1":"1 65498U 25198G   26263.89282788  .00027151  00000+0  81153-3 0  9994","line2":"2 65498  53.1592  81.6724 0000819  74.9707 285.1387 15.34410323 58541","mean_motion":15.34410323,"eccentricity":8.19e-5,"inclination_deg":53.1592,"raan_deg":81.6724,"arg_perigee_deg":74.9707,"mean_anomaly_deg":285.1387,"bstar":0.00081153,"rev_number":5854,"period_min":93.847126704973,"perigee_km":462.11229594483,"apogee_km":463.23282055047,"semimajor_km":6840.8095582476,"source":"CELESTRAK","updated_at":"2026-09-21T09:00:35.642141Z"}}